Regional Weather Roundup
Issued by NWS Charleston, SC

Current Version | Previous Version | Graphics & Text | Print | Product List | Glossary On
Versions: 1 2 3 4 5 6 7 8 9 10 11 12 13 14 15 16 17 18 19 20 21 22 23 24 25 26 27 28 29 30 31 32 33 34 35 36 37 38 39 40 41 42 43 44 45 46 47 48 49 50
000
ASUS42 KCHS 210425
RWRCHS

REGIONAL WEATHER ROUNDUP
NATIONAL WEATHER SERVICE CHARLESTON SC
1200 AM EDT THU AUG 21 2014

NOTE: "FAIR" INDICATES FEW OR NO CLOUDS BELOW 12,000 FEET WITH NO
SIGNIFICANT WEATHER AND/OR OBSTRUCTIONS TO VISIBILITY.

NOT ALL STATIONS ARE QUALITY CONTROLLED BY THE NATIONAL
WEATHER SERVICE. USE DATA WITH CAUTION...ESPECIALLY
DEWPOINT OBSERVATIONS.

SCZ027-030-031-034>040-042>050-210500-
...SOUTH CAROLINA...

CITY           SKY/WX    TMP DP  RH WIND       PRES   REMARKS
N CHARLESTON   PTCLDY    84  78  82 W8        30.04S HX  95
WATERFRONT PRK   N/A     84 N/A N/A SW6         N/A
FORT JOHNSON   NOT AVBL
MOUNT PLEASANT FAIR      81  79  94 CALM      30.04R FOG
JOHNS ISLAND   PTCLDY    81  81 100 CALM      30.04R HX  91
PINOPOLIS        N/A     86  73  66 SW2       29.95F HX  93
MONCKS CORNER    N/A     79  77  94 CALM      30.04R
SUMMERVILLE    FAIR      79  77  94 CALM      30.05S
BEAUFORT MCAS  MOCLDY    82  72  71 N6        30.05R
BEAUFORT ARPT  FAIR      82  73  74 W6        30.05R
HILTON HEAD IS MOCLDY    82  75  78 W5        30.07R
GEORGETOWN     NOT AVBL
WALTERBORO     PTCLDY    81  72  74 W3        30.05F
ORANGEBURG     MOCLDY    80  69  69 SW6       30.05R
BARNWELL       FAIR      77  70  78 W3        30.06F
AIKEN          FAIR      77  72  83 W5        30.10S
MANNING        FAIR      81 N/A N/A CALM      30.02F
KINGSTREE      NOT AVBL
COLUMBIA       CLOUDY    82  70  66 SW6       30.03S
SUMTER         CLOUDY    82  73  76 W8        30.01F
FLORENCE       MOCLDY    78  74  87 CALM      30.02F
MYRTLE BEACH   PTCLDY    81  75  83 CALM      30.03S
N MYRTLE BEACH LGT RAIN  79  78  97 CALM      30.02S FOG

$$

GAZ063-065-086>088-099>101-113>116-118-119-134-136>141-150-210500-
...GEORGIA...

CITY           SKY/WX    TMP DP  RH WIND       PRES   REMARKS
SAVANNAH ARPT  CLOUDY    80  69  69 NW7       30.07R
HUNTER AAF     CLOUDY    81  71  71 NW7       30.05R
FORT STEWART   CLOUDY    76  71  86 CALM      30.06R
STATESBORO     NOT AVBL
SYLVANIA       MOCLDY    76  74  92 CALM      30.08S
CLAXTON        FAIR     N/A N/A N/A CALM      30.08R
THOMSON        CLOUDY    74  74  98 CALM      30.12R
AUGUSTA-BUSH   CLOUDY    73  70  90 SE3       30.06S
AUGUSTA-DANIEL CLOUDY    79  68  69 W6        30.07F
SWAINSBORO     FAIR      77  72  83 NW7       30.09S
VIDALIA          N/A     73  72  94 SW3       30.10R
ALMA           MOCLDY    75  69  81 CALM      30.09R
WAYCROSS       MOCLDY    79  74  85 CALM      30.09R
JESUP            N/A     79  72  78 NW6       30.08S
BRUNSWICK      MOCLDY    81  70  69 CALM      30.08R
SAINT SIMONS   PTCLDY    83  72  69 W3        30.07R

$$

SCZ027-028-034-036>038-045-046-048>050-GAZ119-141-210500-
...LAKE AND SUPPLEMENTAL COASTAL OBSERVATIONS...

STATION/POSITION TIME  TEMP    WIND        PRES    WAVE   SWELL
                       AIR SEA DIR/SP/G            HT/PER HT/PER/DIR
                 (UTC) (F)     (DEG/KT/KT) (MB)    (FT/S) (FT/S/D)
UPR LAKE MARION  NOT AVBL
WINYAH BAY       0400   80        CALM     1017.0S
LAKE MURRAY      0300   83     290/  4/  9 1016.6S
ACE BASIN NERRS  0400   81        CALM     1017.0S
FORT PULASKI     0400   81     300/  6/  7 1018.1R
SAPELO ISLAND    0400   83     310/  2     1019.0R

$$

ANZ835-935-AMZ111-154-330-350-352-354-374-450-454-472-210500-
...C-MAN AND BUOY OBSERVATIONS...

STATION/POSITION TIME  TEMP    WIND        PRES    WAVE   SWELL
                       AIR SEA DIR/SP/G            HT/PER HT/PER/DIR
                 (UTC) (F)     (DEG/KT/KT) (MB)    (FT/S) (FT/S/D)
FOLLY BEACH CMAN 0400   84     240/  6/  7 1017.4F
BUOY 41004       0400   84 84  230/ 12/ 12 1016.6R   3/ 4   2/ 8
BUOY 41008       0400   85 85  220/ 14/ 16 1017.8R   2/ 3   2/120/ 8
5E ST. MARYS GA  0400      83                N/A     2/ 3
FRYING PAN BUOY  NOT AVBL
BUOY 41025       0400   78      CALM  /  4 1017.0S   2/ 6
CAPE LOOKOUT NC  0400   80     240/  4/  4 1017.0R
BUOY 41002       0310   81 81  240/ 12/ 14 1018.4R   4/ 7   2/250/ 7
BUOY 41010       0400   84 85  200/ 10/ 10 1019.5F   2/ 8   2/140/ 8
BUOY 41012       NOT AVBL
ST AUGUSTINE FL  0400   79     230/  2/  2 1019.5R
CAPERS NEARSHORE 0300   85     260/ 10/ 12   N/A
FRIPP NEARSHORE  NOT AVBL


$$



USA.gov is the U.S. government's official web portal to all federal, state and local government web resources and services.